User: anonymous   Login
Location: Laterina
(43.5167°N, 11.7167°E)
Time: 23:32:32
(UTC+00:00)
Language:

CAS-6 - Orbit

View from above orbital plane
View from above orbital plane
View from above satellite
View from above satellite

Ground track
Ground track

The orbit data is extracted from the following two-line orbital elements,

1 44881U 19093C   21060.53358138  .00000097  00000-0  19232-4 0  9999
2 44881  97.9330 140.5013 0013585 285.3348  74.6367 14.81425656 64754
Epoch (UTC): 01 March 2021 12:48:21
Eccentricity: 0.0013585
inclination: 97.9330°
perigee height: 615 km
apogee height: 634 km
right ascension of ascending node: 140.5013°
argument of perigee: 285.3348°
revolutions per day: 14.81425656
mean anomaly at epoch: 74.6367°
orbit number at epoch: 6475

The dashed part of the orbit path shows where the satellite is in the earth's shadow,  

DLR